sat.trackr.live / text

‹ back to catalog

EWS-G2 (GOES 15)

NORAD 36411 · 2010-008A

PAYLOAD ACTIVE UNKNOWN

§ Identity

Operator
Country
US
Launch date
2010-03-04
Launch site
AFETR
Launch vehicle
Mass (kg)
RCS (m²)
6.31

Purposes: comms, earth_obs

External: N2YO · Heavens-Above · Gunter

§ Orbital elements

Epoch: 2026-09-20T00:06:55.215072Z

Period
1,436.09 min
Inclination
1.5326°
Eccentricity
0.0005158
Mean motion
1.00272447 rev/d
Perigee alt
35,764.7 km
Apogee alt
35,808.2 km
Semi-major
42,164.5 km
B*
0.0000e+0
RAAN
81.8089°
Arg perigee
81.8696°
Mean anomaly
260.2672°
Rev number
6,058

§ Raw data

EWS-G2 (GOES 15)1 36411U 10008A   26263.00480573  .00000018  00000+0  00000+0 0  99972 36411   1.5326  81.8089 0005158  81.8696 260.2672  1.00272447 60586

JSON: /api/v1/satellites/36411 · /tle

For live sub-satellite position, see the globe view (requires WebGL).

§ Visibility from observer

Set your observer location to see the next 7 days of passes ≥ 10°. The values pass through the URL so the page stays shareable.

No JS? Fill the form by hand. The geolocation button needs JavaScript.